Chicago Midway, IL

5:59 PM CST on December 08, 2019 (GMT -0600)
Chicago-Midway

Weather History for KMDW - October, 2019

Change the Weather History Date:

Thursday, October 24, 2019

  Actual Average Record
Temperature  
Mean Temperature 47 °F 51 °F  
Max Temperature 51 °F 60 °F 83 °F (1963)
Min Temperature 42 °F 43 °F 20 °F (1981)
Degree Days  
Heating Degree Days 18 14  
Month to date heating degree days 238 242  
Since 1 July heating degree days 239 324  
Cooling Degree Days 0 0  
Month to date cooling degree days 21 13  
Year to date cooling degree days 1131 1042  
Moisture  
Dew Point 38 °F    
Average Humidity 72    
Maximum Humidity 89    
Minimum Humidity 52    
Precipitation  
Precipitation 0.00 in 0.10 in 1.38 in (1940)
Month to date precipitation 1.58 2.45  
Year to date precipitation 39.40 32.31  
Sea Level Pressure  
Sea Level Pressure 30.24 in    
Wind  
Wind Speed 6 mph (NNW)    
Max Wind Speed 15 mph    
Max Gust Speed 20 mph    
Visibility 10 miles    
Events      
T = Trace of Precipitation, MM = Missing Value Source: NWS Daily Summary

Daily Weather History Graph

Daily Weather History Graph

Search for Another Location

Airport or City:

Astronomy

Oct. 24, 2019 Rise Set
Actual Time 7:13 AM CDT 5:56 PM CDT
Civil Twilight 6:44 AM CDT 6:24 PM CDT
Nautical Twilight 6:12 AM CDT 6:57 PM CDT
Astronomical Twilight 5:40 AM CDT 7:29 PM CDT
Moon 2:37 AM CDT (10/24) 4:28 PM CDT (10/24)
Length of Visible Light 11h 39m
Length of Day
10h 42m
Waning Crescent, 16% of the Moon is Illuminated
Oct 24
Waning Crescent
Oct 27
New
Nov 4
First Quarter
Nov 12
Full
Nov 19
Last Quarter

Hourly Weather History & Observations

Time (CDT) Temp. Windchill Dew Point Humidity Pressure Visibility Wind Dir Wind Speed Gust Speed Precip Events Conditions
12:53 AM 48.0 °F - 44.1 °F 86% 30.01 in 10.0 mi NNE 11.5 mph - 0.00 in   Overcast
1:15 AM 48.0 °F - 43.0 °F 83% 30.03 in 10.0 mi North 9.2 mph - N/A   Overcast
1:53 AM 46.9 °F - 43.0 °F 86% 30.07 in 10.0 mi North 12.7 mph - N/A   Overcast
2:29 AM 46.0 °F 41.9 °F 43.0 °F 89% 30.07 in 10.0 mi North 8.1 mph - N/A   Overcast
2:53 AM 46.0 °F 41.9 °F 43.0 °F 89% 30.08 in 10.0 mi North 8.1 mph - N/A   Overcast
3:41 AM 46.0 °F 41.4 °F 42.1 °F 86% 30.11 in 10.0 mi NNW 9.2 mph - N/A   Mostly Cloudy
3:53 AM 46.0 °F 40.2 °F 41.0 °F 83% 30.13 in 10.0 mi NNW 12.7 mph - N/A   Overcast
4:14 AM 45.0 °F 39.3 °F 39.9 °F 82% 30.12 in 10.0 mi NNW 11.5 mph - N/A   Mostly Cloudy
4:53 AM 43.0 °F 37.7 °F 39.0 °F 86% 30.16 in 10.0 mi NW 9.2 mph - N/A   Scattered Clouds
5:53 AM 43.0 °F 38.2 °F 39.0 °F 86% 30.18 in 10.0 mi NW 8.1 mph - N/A   Mostly Cloudy
6:53 AM 45.0 °F 40.1 °F 39.9 °F 82% 30.21 in 10.0 mi NNW 9.2 mph - N/A   Overcast
7:53 AM 45.0 °F 41.2 °F 39.0 °F 80% 30.25 in 10.0 mi NW 6.9 mph - N/A   Mostly Cloudy
8:53 AM 45.0 °F 39.7 °F 37.9 °F 76% 30.27 in 10.0 mi NNW 10.4 mph - N/A   Mostly Cloudy
9:53 AM 46.9 °F - 37.0 °F 68% 30.28 in 10.0 mi North 6.9 mph - N/A   Mostly Cloudy
10:53 AM 48.0 °F - 36.0 °F 63% 30.30 in 10.0 mi NNW 6.9 mph - N/A   Mostly Cloudy
11:53 AM 48.9 °F - 36.0 °F 61% 30.31 in 10.0 mi North 6.9 mph - N/A   Mostly Cloudy
12:53 PM 50.0 °F - 35.1 °F 57% 30.32 in 10.0 mi West 5.8 mph - N/A   Mostly Cloudy
1:53 PM 50.0 °F - 35.1 °F 57% 30.31 in 10.0 mi Calm Calm - N/A   Overcast
2:53 PM 51.1 °F - 34.0 °F 52% 30.31 in 10.0 mi Calm Calm - N/A   Overcast
3:53 PM 51.1 °F - 35.1 °F 54% 30.31 in 10.0 mi Calm Calm - N/A   Overcast
4:53 PM 48.9 °F - 36.0 °F 61% 30.31 in 10.0 mi ESE 5.8 mph - N/A   Overcast
5:53 PM 48.0 °F - 36.0 °F 63% 30.31 in 10.0 mi East 6.9 mph - N/A   Overcast
6:53 PM 46.9 °F - 36.0 °F 66% 30.33 in 10.0 mi ESE 5.8 mph - N/A   Overcast
7:53 PM 46.9 °F - 36.0 °F 66% 30.34 in 10.0 mi Calm Calm - N/A   Overcast
8:53 PM 46.9 °F - 35.1 °F 63% 30.37 in 10.0 mi SSE 3.5 mph - N/A   Overcast
9:53 PM 46.9 °F - 36.0 °F 66% 30.38 in 10.0 mi Calm Calm - N/A   Overcast
10:53 PM 46.9 °F - 37.0 °F 68% 30.36 in 10.0 mi Calm Calm - N/A   Mostly Cloudy
11:53 PM 45.0 °F 42.6 °F 37.9 °F 76% 30.36 in 10.0 mi WNW 4.6 mph - N/A   Overcast